Location: Killarney Provincial Park Observatory
(46.0124°N, 81.4000°W)
Time: 01:42:34
(UTC-05:00)

Iridium 22 - Visible Passes

Search period start: 13 February 2016 00:00
Search period end: 23 February 2016 00:00
Orbit: 776 x 779 km, 86.4° (Epoch: 12 February)

Date Brightness Start Highest point End Pass type
(mag) Time Alt. Az. Time Alt. Az. Time Alt. Az.
20 Feb 8.2 21:29:19 11° N 21:29:19 11° N 21:29:29 10° N visible
21 Feb 7.8 20:55:17 14° N 20:55:17 14° N 20:55:56 10° N visible
22 Feb 7.5 20:21:10 15° NNE 20:21:10 15° NNE 20:22:09 10° NNE visible
22 Feb 8.1 22:01:35 15° NNW 22:01:35 15° NNW 22:02:36 10° NNW visible
